Fort Wayne Police Department
Fort Wayne Police Department
Emergencies Call: 911
Non-Emergencies: (260) 427-1222
report drug house

Daily Activity Logs

Activity Log for August 14, 2013 Community Search

Incident Time Nature Address
13F119831 00:03:19 48,36 5200 COVINGTON RD
13F119832 00:07:21 43 DISTURBANCE 1100 LAKE AVE
13F119833 00:13:03 101 OPEN DOOR 300 BAROUCHE PL
13F119834 00:14:05 55 FIGHT 2900 INDIANA AVE & COTTAGE AVE
13F119835 00:28:03 30 TRAFFIC STOP 1400 ARDMORE AVE & JEFFERSON BLVD
13F119836 00:33:14 911 HANG UP 400 ESSEX LN W
13F119837 00:34:28 30 TRAFFIC STOP 400 ARCHER AVE & WELLS ST
13F119838 00:41:59 911 HANG UP 5900 BUNT DR
13F119842 00:47:58 1 MEET 4900 STANDISH DR
13F119839 00:49:51 30 TRAFFIC STOP 5000 BLUFFTON RD
13F119840 00:50:17 48,36 1900 COLONIAL AVE W
13F119841 00:53:18 48 SUSPICIOUS 400 COLERICK ST & WARSAW ST
13F119843 01:02:12 44LM 400 SHERWOOD TERR W
13F119844 01:02:28 911 HANG UP 800 MAIN ST W
13F119845 01:05:17 48 SUSPICIOUS 800 OAKLAWN CT
13F119846 01:05:46 66 72 HOUR 11100 PARKVIEW PLAZA DR
13F119847 01:13:31 75 PURSUIT 3800 HARRISON ST S & RUDISILL BLVD
13F119849 01:14:45 911 HANG UP 4600 DEROME DR E
13F119848 01:18:45 30 TRAFFIC STOP 3500 ILLINOIS RD & JEFFERSON BLVD
13F119850 01:32:53 30 TRAFFIC STOP 1700 KENSINGTON BLVD & NEVADA AVE
13F119851 01:45:03 15 ASSIST 1100 FAIRFIELD AVE
13F119852 01:47:25 27 RECKLESS DRI 5800 LIMA RD & WASHINGTON CENTER R
13F119853 01:48:41 48 SUSPICIOUS 1500 WAYNE ST E
13F119855 01:52:33 40A AUDIBLE 10100 MAYSVILLE RD
13F119854 01:52:39 16V PICKUP VID 00 MAIN ST E
13F119856 01:58:15 50JO 3300 CHARLOTTE AVE
13F119857 02:09:14 27 RECKLESS DRI 30700 I 69 NB
13F119859 02:10:07 48 SUSPICIOUS 2700 HOAGLAND AVE
13F119858 02:10:51 63 CONTACT 1300 POLK ST
13F119860 02:13:13 62 PARTY ARMED 1600 WELLS ST & SPRING ST
13F119861 02:47:49 50,ATTEMPTED 5300 GOSHEN RD
13F119863 02:53:23 44 NUISANCE 1100 COLISEUM BLVD N
13F119862 03:01:37 50IP BURG I/P 7800 RIDGESIDE LN
13F119864 03:08:42 23JO 5500 STATE BLVD E
13F119865 03:32:44 48 SUSPICIOUS 200 SHERWOOD TERR W
13F119866 03:36:10 40 ALARM 5900 ILLINOIS RD
13F119867 03:51:27 40A AUDIBLE 4600 PARNELL AVE
13F119868 03:58:35 30 TRAFFIC STOP 4000 FAIRFIELD AVE & BRANNING AVE
13F119869 04:08:09 40A AUDIBLE 6400 SALISBURY DR
13F119870 04:16:34 129 600 LEWIS ST E & HANNA ST S
13F119871 04:29:33 30 TRAFFIC STOP 5000 BLUFFTON RD
13F119872 04:34:11 43 DISTURBANCE 3500 HARRIS RD
13F119874 04:41:29 25 PD ACCIDENT 1000 COLISEUM BLVD E & PARNELL AVE
13F119873 04:41:50 16V PICKUP VID 00 MAIN ST E
13F119875 04:50:50 48,36 7300 LINDA DR
13F119876 04:54:35 39U UNAUTHORIZE 4600 WASHINGTON BLVD E
13F119879 05:03:19 44 NUISANCE 700 ELMER AVE
13F119877 05:03:55 40A AUDIBLE 3200 FAIRFIELD AVE
13F119878 05:05:28 20 PROBLEM UNK 1500 TILDEN AVE
13F119880 05:09:38 96 BATTERY 300 SUPERIOR ST W
13F119881 05:14:54 50IP BURG I/P 100 LEITH ST W
13F119882 05:23:37 19 ESCORT 2300 LILLIE ST & MILAN ST
13F119883 05:25:51 27 RECKLESS DRI 1800 APPLE GLEN BLVD & JEFFERSON B
13F119884 05:41:18 48 SUSPICIOUS 2600 REPTON DR
13F119885 05:49:50 911 HANG UP 3100 FAIRFIELD AVE
13F119886 06:37:33 33,34 1100 LAFAYETTE ST S & LEWIS ST E
13F119887 07:06:44 48,35 800 WASHINGTON BLVD W
13F119888 07:11:56 51,35 300 FLEMING AVE W
13F119890 07:29:43 44LM 1200 WILT ST
13F119889 07:31:44 911 HANG UP 4600 SOUTHPARK DR
13F119891 07:43:28 33,34 1500 ST JOE CENTER RD & CLINTON ST
13F119894 07:59:43 47 REMOVE ITEMS 2100 BROADWAY & DEWALD ST W
13F119892 07:59:50 30 TRAFFIC STOP 400 COLISEUM BLVD W
13F119893 08:00:46 911 HANG UP 500 JEFFERSON BLVD W
13F119895 08:13:39 911 HANG UP 4900 REED RD
13F119897 08:13:40 33,34 1100 SPY RUN AVE
13F119896 08:14:04 51 THEFT 2500 WAYNE TRACE E
13F119898 08:17:01 122 HUNTERTOWN 15000 OLD LIMA RD
13F119901 08:18:22 101 OPEN DOOR 3400 CLERMONT AVE
13F119902 08:19:41 39 STOLEN VEHIC 6800 LAKE FOREST VILLAGE CIR
13F119903 08:20:58 50 BURGLARY 7600 VERONA DR
13F119905 08:25:31 51,35 9500 GOLDEN OAK DR
13F119906 08:29:50 911 HANG UP 700 THIRD ST
13F119907 08:30:19 37 PARKING VIOL 4300 WHALERS CV
13F119908 08:34:27 16V PICKUP VID 00 MAIN ST E
13F119909 08:39:17 16V PICKUP VID 00 MAIN ST E
13F119916 08:40:23 63 CONTACT 3000 COLISEUM BLVD W
13F119910 08:42:10 40A AUDIBLE 3400 MAPLE GROVE AVE E
13F119911 08:45:58 51,35 5200 DIAL DR
13F119912 08:48:15 51,35 4600 OLD MILL RD
13F119913 08:54:20 43,62 2400 PRISCILLA LN
13F119914 08:55:19 37 PARKING VIOL 4900 ROYAL DR
13F119915 08:58:26 23,35 VAND VEH 300 CORNELL CIR S
13F119918 09:22:12 51 THEFT 200 PETTIT AVE E
13F119919 09:33:52 25 PD ACCIDENT 2000 LAWNDALE DR & WOODWARD AVE
13F119921 09:34:11 1 MEET 6300 HUGUENARD RD
13F119920 09:36:04 TOW 8000 PRESTON POINTE DR
13F119922 09:38:19 96JO 1800 BROADWAY
13F119926 09:39:59 48,35 2600 FAIRFIELD VIEW PL
13F119925 09:40:40 63 CONTACT 5300 HATFIELD RD
13F119924 09:41:17 22N CHILD NEGLE 2900 WINTER ST
13F119923 09:41:39 48 SUSPICIOUS 4900 CLINTON ST N
13F119927 09:47:35 23,35 VAND VEH 3100 MAPLECREST RD
13F119928 09:47:42 23 VANDALISM 2300 HARRISON ST S
13F119929 09:47:43 103 UNWANTED 600 TENNESSEE AVE
13F119930 09:49:33 41,36 3900 CALHOUN ST S & FOSTER PKWY E
13F119933 09:53:44 47 REMOVE ITEMS 3100 LIMERICK PL
13F119931 10:00:53 TOW 1500 FAIRFAX AVE E
13F119935 10:01:38 63 CONTACT 5400 RIVER RUN TRL
13F119932 10:04:11 51 THEFT 5800 LE STEELE BLVD
13F119934 10:08:00 51 THEFT 4900 AVONDALE DR
13F119936 10:20:05 30 TRAFFIC STOP 3700 STONE CREEK RUN
13F119937 10:21:50 TOW 2400 FAIRFIELD AVE
13F119938 10:23:23 23,35 VAND VEH 5500 COLDWATER RD
13F119939 10:23:43 26 PI ACCIDENT 1700 GILLIERON DR & AUBURN RD
13F119941 10:24:18 40A AUDIBLE 3500 MONO GENE DR
13F119940 10:24:22 51 THEFT 2200 BEACON ST
13F119942 10:26:01 129 8700 WOODSTREAM DR
13F119944 10:32:48 25HS HIT SKIP 300 STATE BLVD E & SPY RUN AVE
13F119943 10:32:54 51 THEFT 600 WALLEN HILLS DR
13F119945 10:36:19 17 MOTOR CHECK 7700 SUNNY LN
13F119946 10:41:20 30 TRAFFIC STOP 9600 ABOITE CENTER RD & TURF LN
13F119947 10:45:14 43 DISTURBANCE 600 PELLSTON CT
13F119948 10:46:52 23,35 VAND VEH 1200 KORTE LN
13F119949 10:48:24 TOW 7900 PRESTON POINTE DR
13F119950 10:49:44 46 DOMESTIC 900 ONEIDA ST
13F119951 10:51:56 911 HANG UP 2200 COLGATE DR
13F119997 10:52:43 23 VANDALISM 3600 CLINTON ST N
13F119952 10:55:50 48 SUSPICIOUS 2300 LYNN AVE
13F119953 10:56:11 46 DOMESTIC 6000 RADCLIFFE DR
13F119954 10:59:50 33,34 100 STATE BLVD E & CLINTON ST N
13F119956 11:04:46 25 PD ACCIDENT 1200 ILLINOIS RD S
13F119955 11:05:20 32 DEATH INVEST 4000 HANNA ST S
13F119957 11:08:31 48 SUSPICIOUS 2500 ANTHONY BLVD N
13F119958 11:15:05 37 PARKING VIOL 3200 VARSITY LN & COLLEGIATE CT
13F119959 11:18:35 46 DOMESTIC 2500 WESTSTATE CT
13F119960 11:20:02 41 MAN DOWN 1200 HANNA ST S & DOUGLAS AVE E
13F119961 11:24:08 40 ALARM 4300 BLUFFTON RD
13F119973 11:24:51 63 CONTACT 3500 COLISEUM BLVD W
13F119964 11:25:33 43 DISTURBANCE 600 LEWIS ST E & HANNA ST S
13F119962 11:25:45 TOW 7900 PRESTON POINTE DR
13F119963 11:26:29 911 HANG UP 5400 BUELL DR
13F119965 11:26:51 911 HANG UP 3300 TRIER RD
13F119966 11:29:20 30 TRAFFIC STOP 3700 ILLINOIS RD & HILLEGAS RD S
13F119967 11:29:23 50 BURGLARY 5800 ARLENE AVE
13F119968 11:31:47 51JO 800 HIGH ST
13F119969 11:37:04 51 THEFT 00 MAIN ST E
13F119970 11:37:26 44LM 1700 TILDEN AVE
13F119975 11:42:56 22RC RECOVERY 1300 WASHINGTON CENTER RD W
13F119988 11:43:40 102 THREATS 500 FIFTH ST
13F119979 11:43:55 63 CONTACT 2200 MONTCLAIR AVE
13F119971 11:46:30 101 OPEN DOOR 1900 GREENTREE CT
13F119981 11:47:17 23,35 VAND VEH 2800 PLAZA DR
13F119972 11:47:48 63 CONTACT 9700 KNOLL CREEK CV
13F119974 11:48:42 96JO 700 MILTON ST
13F119976 11:50:24 46 DOMESTIC 1200 WALL ST
13F119977 11:51:30 30 TRAFFIC STOP 7100 MAPLECREST RD & LANGWOOD BLVD
13F119978 11:54:25 22I JUV INVEST 300 CORNELL CIR S
13F119980 11:59:12 911 HANG UP 300 PAULDING RD E
13F119982 12:02:56 HARASSMENT 2000 BAYVIEW DR
13F119983 12:04:56 51 THEFT 4000 SHERMAN BLVD
13F119987 12:06:12 51,35 1000 LINCOLN AVE
13F119984 12:08:18 40A AUDIBLE 2300 SPY RUN AVE
13F119985 12:12:19 911 HANG UP 2800 ST LOUIS AVE
13F119986 12:15:32 30 TRAFFIC STOP 1600 HILLSIDE AVE & SALLIE AVE
13F119989 12:26:22 98 VICE INVEST 1400 WASHINGTON CENTER RD W
13F119990 12:26:43 43 DISTURBANCE 4500 STANDISH DR
13F119991 12:29:41 63 CONTACT 100 MAIN ST E & CLINTON ST S
13F119992 12:36:56 911 HANG UP 4600 PLAZA DR
13F119993 12:47:54 43 DISTURBANCE 100 SPRING FOREST CT
13F119994 12:49:48 22I JUV INVEST 6200 STELLHORN RD & MAPLECREST RD
13F119995 12:53:42 103 UNWANTED 2700 PAULDING RD E
13F119996 12:55:02 103 UNWANTED 100 RUDISILL BLVD E
13F120000 12:58:20 27 RECKLESS DRI 29900 I 69 NB
13F119998 12:59:06 911 HANG UP 3900 WEISSER PARK AVE
13F120008 13:00:34 102,TX THREATS 3200 SOLITUDE PL
13F120001 13:01:31 63 CONTACT 6100 STELLHORN RD
13F120003 13:02:07 911 HANG UP 1400 WASHINGTON CENTER RD W
13F119999 13:02:33 16,97 700 BROADWAY
13F120005 13:04:10 27 RECKLESS DRI 600 WASHINGTON BLVD W & BROADWAY
13F120002 13:06:01 911 HANG UP 3600 ELMCREST DR
13F120004 13:09:58 56 MOLESTING 1900 BEAR PAW DR
13F120031 13:12:00 16,97 700 WAYNE ST W
13F120006 13:13:09 51IP 1100 MAPLE GROVE AVE E
13F120007 13:13:57 43,62 4200 CLINTON ST N
13F120009 13:16:06 46 DOMESTIC 2500 WESTSTATE CT
13F120030 13:20:48 50 BURGLARY 2100 LOWER HUNTINGTON RD
13F120010 13:26:23 911 HANG UP 100 ESMOND ST
13F120011 13:27:55 911 HANG UP 800 REWILL DR
13F120014 13:30:09 911 HANG UP 1700 HARRISON ST S
13F120012 13:30:45 129 3200 COUNTRY PARK LN
13F120013 13:31:01 129 7700 GLENOAK PKWY
13F120015 13:32:26 46,96 1300 LILLIE ST
13F120016 13:32:56 25HS HIT SKIP 4200 HANNA ST S & MCKINNIE AVE
13F120017 13:44:01 129 7400 TIPPERARY TRL
13F120019 13:44:19 911 HANG UP 1500 HALE AVE
13F120018 13:44:24 129 7400 ANTEBELLUM BLVD
13F120021 13:45:35 48 SUSPICIOUS 6200 STELLHORN RD
13F120026 13:49:12 63 CONTACT 1300 LILLIE ST
13F120023 13:50:36 25 PD ACCIDENT 1400 COLISEUM BLVD N & LAKE AVE
13F120024 13:50:41 46,96 1900 HOAGLAND AVE
13F120028 13:53:56 24 MISSING PERS 2600 SMITH ST
13F120029 13:54:31 1 MEET 5200 CORONET CT
13F120039 13:54:56 27 RECKLESS DRI 6100 SHELL DR
13F120027 13:54:59 1 MEET 1800 MAIN ST W
13F120034 13:58:09 51 THEFT 1000 COLISEUM BLVD W
13F120032 14:07:51 23,35 VAND VEH 400 OAKDALE DR W
13F120033 14:12:38 16V PICKUP VID 00 MAIN ST E
13F120035 14:18:38 43 DISTURBANCE 4100 STATE BLVD E
13F120036 14:20:44 108 FOLLOWUP 900 LINCOLN AVE
13F120037 14:21:53 63 CONTACT 4100 BLUFFTON RD & ENGLE RD
13F120038 14:24:05 16V PICKUP VID 00 MAIN ST E
13F120040 14:25:05 911 HANG UP 6100 STELLHORN RD
13F120041 14:26:50 40A AUDIBLE 2000 PONTIAC ST E
13F120043 14:27:05 911 HANG UP 2500 CLINTON ST N
13F120042 14:27:13 103 UNWANTED 3500 WEBSTER ST
13F120044 14:28:22 25 PD ACCIDENT 2200 SPY RUN AVE & STATE BLVD E
13F120047 14:29:42 63 CONTACT 2900 GOSHEN RD & COLISEUM BLVD W
13F120046 14:30:58 33,34 7300 JEFFERSON BLVD W & ABOITE CEN
13F120050 14:32:21 45 NEIGHBORHOOD 400 ARCHER AVE
13F120048 14:32:40 46 DOMESTIC 1100 VENTURA LN
13F120049 14:33:24 129 2000 WOOD MOOR DR
13F120052 14:39:50 25HS HIT SKIP 3500 STATE BLVD W
13F120051 14:39:54 43 DISTURBANCE 1000 LILLIAN AVE
13F120054 14:41:13 37 PARKING VIOL 1000 PAPE AVE
13F120053 14:46:03 30 TRAFFIC STOP 2000 COVINGTON RD & BROOKLYN AVE
13F120055 14:46:18 25HS HIT SKIP 2200 HOLTON AVE
13F120056 14:47:28 911 HANG UP 600 STATE BLVD W
13F120067 14:53:27 66 72 HOUR 400 COOK RD E
13F120059 14:54:05 40A AUDIBLE 3500 BOWSER AVE
13F120057 14:54:37 27 RECKLESS DRI 4800 WINCHESTER RD & BLUFFTON RD
13F120058 14:55:25 46,96 2500 LAVENDER DR
13F120061 14:57:58 25 PD ACCIDENT 800 GOSHEN AVE & SHERMAN BLVD
13F120060 14:58:56 108 FOLLOWUP 1400 STOPHLET ST
13F120068 15:04:54 48,36 3800 WESTLAKES DR & UNITA DR
13F120063 15:05:43 22I JUV INVEST 3100 MAPLE GROVE AVE E & HESSEN CA
13F120064 15:07:46 50IP BURG I/P 1900 WOODHAVEN DR
13F120066 15:09:02 25HS HIT SKIP 5000 ST JOE RD & CANTERBURY BLVD
13F120065 15:09:17 30 TRAFFIC STOP 3700 TAYLOR ST & ARDMORE AVE
13F120084 15:09:48 14S SERVING WAR 2600 LILLIE ST
13F120069 15:15:14 26 PI ACCIDENT 5400 KEYSTONE DR
13F120070 15:16:16 43 DISTURBANCE 8700 CRESTFIELD CT
13F120077 15:16:32 48 SUSPICIOUS 2900 GOSHEN RD & COLISEUM BLVD W
13F120072 15:17:11 40 ALARM 400 COLISEUM BLVD W
13F120071 15:17:37 23,35 VAND VEH 100 CREIGHTON AVE E
13F120073 15:17:41 40A AUDIBLE 4200 NORTH DR
13F120074 15:20:45 911 HANG UP 3100 HARRISON ST S
13F120076 15:21:53 38 LOST/STOLEN 1700 EDSALL AVE
13F120078 15:22:58 29 SPECIAL ASGN 1500 SCOTT RD S
13F120079 15:23:00 30 TRAFFIC STOP 9300 LIMA RD & TILL RD W
13F120080 15:24:04 46 DOMESTIC 1100 EDGEWATER AVE
13F120128 15:24:05 17 MOTOR CHECK 7000 HAZELETT RD
13F120081 15:25:16 48 SUSPICIOUS 2300 GAY ST
13F120082 15:28:24 30 TRAFFIC STOP 4800 WASHINGTON RD N
13F120083 15:29:09 50IP BURG I/P 4600 MERCER CT
13F120087 15:33:12 911 HANG UP 00 WILLOUGHBY PL
13F120085 15:33:25 43 DISTURBANCE 2300 HOAGLAND AVE
13F120095 15:35:42 1 MEET 4600 EUCLID AVE
13F120086 15:37:54 30 TRAFFIC STOP 1500 LAVERNE AVE & LAKE AVE
13F120092 15:41:47 911 HANG UP 6700 KOESTER DR & LOWER HUNTINGTON
13F120088 15:45:08 43 DISTURBANCE 900 GRACE AVE
13F120089 15:48:10 25 PD ACCIDENT 4100 BLUFFTON RD & ENGLE RD
13F120090 15:51:42 48 SUSPICIOUS 500 CREIGHTON AVE W & FAIRFIELD AV
13F120091 15:52:35 911 HANG UP 1300 GREENE ST
13F120093 15:57:00 96JO 1200 SWINNEY AVE
13F120094 16:00:26 48,36 400 BASS ST
13F120096 16:01:29 46 DOMESTIC 3000 INWOOD DR
13F120098 16:02:45 48 SUSPICIOUS 100 JEFFERSON BLVD W
13F120097 16:04:01 911 HANG UP 1300 GREENE ST
13F120100 16:07:02 62 PARTY ARMED 3500 BRISTERS SPRING RUN
13F120099 16:07:44 25HS HIT SKIP HADLEY RD N
13F120104 16:10:32 911 HANG UP 2400 PITTSBURG ST
13F120105 16:11:18 40A AUDIBLE 4400 WHITEFORD LN
13F120103 16:11:43 103 UNWANTED 3100 MCARTHUR DR
13F120102 16:12:29 80 CIVIL INVEST 100 SUPERIOR ST E & CALHOUN ST S
13F120106 16:15:40 43 DISTURBANCE 5500 COLDWATER RD
13F120107 16:17:50 129 300 PETTIT AVE E
13F120111 16:23:45 22RC RECOVERY 2200 RANDALLIA DR
13F120108 16:24:49 40A AUDIBLE 5000 ROBERTA DR
13F120309 16:26:03 37 PARKING VIOL 3600 MEDA PASS
13F120109 16:28:18 27 RECKLESS DRI 8900 CLINTON ST N & WALLEN RD E
13F120143 16:29:09 45 NEIGHBORHOOD 400 BASS ST
13F120110 16:31:22 66 MENTALLY ILL 3700 ENGLE RD & ARDMORE AVE
13F120112 16:39:20 25 PD ACCIDENT 7400 ANTHONY BLVD S & TILLMAN RD E
13F120113 16:39:35 25 PD ACCIDENT 1200 THOMAS RD S & ILLINOIS RD
13F120114 16:42:02 30 TRAFFIC STOP 1600 WELLS ST
13F120138 16:42:54 108 FOLLOWUP 1000 LINCOLN AVE
13F120117 16:43:15 14 WARRANT 2100 SHERMAN BLVD
13F120115 16:43:51 16,97 300 WASHINGTON BLVD W
13F120116 16:45:36 38 LOST/STOLEN 7900 JEFFERSON BLVD W
13F120119 16:46:02 1 MEET 5100 NORTHCREST DR
13F120121 16:48:41 22I JUV INVEST 200 FOURTH ST E
13F120118 16:48:44 51 THEFT 1200 MAUMEE AVE
13F120120 16:52:10 911 HANG UP 1000 WILSON DR & GAYWOOD DR
13F120123 16:56:06 108 FOLLOWUP 2300 OLIVER ST
13F120122 16:59:30 25 PD ACCIDENT 5000 ST JOE RD & CANTERBURY BLVD
13F120125 17:02:25 50JO 1500 TAYLOR ST
13F120124 17:04:22 25 PD ACCIDENT 8900 CLINTON ST N & WALLEN RD E
13F120126 17:06:21 48,36 3900 DANER DR & SOUTH DR
13F120127 17:07:35 66 MENTALLY ILL 5900 STATE BLVD E
13F120129 17:09:06 34 TRAFF HAZARD 100 TILLMAN RD E & CALHOUN ST S
13F120131 17:12:46 22I JUV INVEST 800 MILTON ST
13F120130 17:13:16 25 PD ACCIDENT 9700 STELLHORN RD & MAYSVILLE RD
13F120134 17:14:09 66 MENTALLY ILL 1500 ANDREW ST
13F120132 17:15:01 62 PARTY ARMED 1200 THOMAS RD S & ILLINOIS RD
13F120151 17:15:17 45 NEIGHBORHOOD 3600 LAFAYETTE ST S
13F120133 17:19:24 51 THEFT 5700 COVENTRY LN
13F120137 17:20:20 26 PI ACCIDENT 4500 BASS RD & THOMAS RD N
13F120135 17:21:55 911 HANG UP 3500 GAYWOOD DR
13F120136 17:22:48 911 HANG UP 2000 CHARTWELL DR
13F120139 17:26:54 40P PANIC ALARM 3900 OAKHURST DR
13F120140 17:27:24 43 DISTURBANCE 6300 STATE BLVD E
13F120141 17:31:48 51 THEFT 1200 ANTHONY BLVD N
13F120142 17:34:43 48 SUSPICIOUS 300 SUPERIOR ST W
13F120144 17:35:49 1 MEET 6400 ALVAREZ DR
13F120145 17:35:54 22I JUV INVEST 5300 GOSHEN RD
13F120159 17:37:41 1 MEET 300 COX DR W
13F120146 17:38:49 50 BURGLARY 2900 WEBSTER ST
13F120147 17:40:52 51,35 5700 LARCHWOOD RUN
13F120148 17:44:53 63 CONTACT 7700 TENDALL CT
13F120150 17:45:18 44LM 5400 HEWITT LN
13F120149 17:45:48 911 HANG UP 700 RUDISILL BLVD E
13F120152 17:53:07 30 TRAFFIC STOP 30500 I 69 SB
13F120153 17:55:06 48 SUSPICIOUS 1200 THIRD ST
13F120156 17:57:13 911 HANG UP 5600 FOXCROSS CT & OLD DOVER BLVD
13F120154 17:57:43 50IP BURG I/P 300 REXFORD DR
13F120155 18:01:05 30 TRAFFIC STOP 31500 I 69 NB
13F120157 18:05:44 27 RECKLESS DRI 2000 LAKE AVE & RANDALLIA DR
13F120158 18:07:29 40A AUDIBLE 4400 EARTH DR
13F120161 18:09:02 911 HANG UP 3300 SMITH ST
13F120160 18:11:00 30 TRAFFIC STOP 4500 WASHINGTON RD N
13F120169 18:12:35 22I JUV INVEST 5700 BUELL DR
13F120162 18:12:47 911 HANG UP 2700 DUPONT RD E
13F120163 18:14:43 48,36 4000 LILLIE ST
13F120164 18:16:53 46 DOMESTIC 5800 MEADOWS DR
13F120165 18:18:26 43 DISTURBANCE 3900 TACOMA AVE & RUDISILL BLVD W
13F120171 18:18:43 22I JUV INVEST 1200 SPY RUN AVE
13F120167 18:18:44 41,36 6300 STATE BLVD E
13F120166 18:19:25 51 THEFT 3500 AVONDALE DR
13F120168 18:20:53 43 DISTURBANCE 6500 DONNA DR
13F120170 18:24:49 30 TRAFFIC STOP 1100 LOWER HUNTINGTON RD & AIRPORT
13F120172 18:29:03 55 FIGHT 900 WEBSTER ST & WAYNE ST W
13F120175 18:31:49 46 DOMESTIC 1900 MAIN ST W
13F120173 18:32:27 1 MEET 8800 CHIMNEY HILL PL
13F120174 18:39:00 40P PANIC ALARM 8300 RAMSHIRE LN
13F120176 18:46:47 43 DISTURBANCE 2400 WAYNEWOOD DR
13F120177 18:52:43 46,96 4500 WILLARD DR
13F120178 18:54:38 34 TRAFF HAZARD 1900 CLINTON ST N
13F120180 18:55:29 44 NUISANCE 700 PROSPECT AVE
13F120179 18:57:25 34 TRAFF HAZARD 1800 BLUFFTON RD
13F120181 18:58:57 30 TRAFFIC STOP 2500 WARSAW ST & WOODLAND AVE E
13F120182 18:59:46 22N CHILD NEGLE 2500 MINER ST
13F120183 19:02:06 40 ALARM 100 MAIN ST W
13F120184 19:03:58 101 OPEN DOOR 5600 WINCHESTER RD
13F120185 19:04:41 113 SHOTS FIRED 8000 SWEETFERN LN
13F120186 19:04:43 17 MOTOR CHECK 6300 WOOD RIM RUN
13F120188 19:07:49 99 NARCOTICS 2100 CAREW ST
13F120187 19:10:55 22I JUV INVEST 2000 SPY RUN AVE & GRISWOLD DR
13F120190 19:12:41 40A AUDIBLE 200 WAYNE ST W
13F120189 19:13:57 HARASSMENT 3300 WEBSTER ST
13F120191 19:15:25 43 DISTURBANCE 800 HUESTIS AVE & FOX AVE
13F120193 19:18:36 46 DOMESTIC 00 MAIN ST E
13F120195 19:19:06 96 BATTERY 7900 SERENITY DR
13F120194 19:24:29 48,36 5700 YMCA PARK DR E
13F120192 19:26:42 30 TRAFFIC STOP 5000 WASHINGTON RD N
13F120196 19:28:35 48,35 800 WILT ST
13F120197 19:30:44 108 FOLLOWUP 2100 EDEN ST
13F120198 19:33:23 1 MEET 7400 GLEN GELDER CIR
13F120199 19:35:22 99 NARCOTICS 10000 AURORA PL
13F120200 19:37:56 43 DISTURBANCE 1900 CLINTON ST N
13F120201 19:38:47 46 DOMESTIC 2600 BELLE VISTA BLVD
13F120202 19:41:27 911 HANG UP 5100 JOAN DR
13F120203 19:44:38 30 TRAFFIC STOP 10800 IRVING RD & SR 37
13F120204 19:45:36 30 TRAFFIC STOP 1400 STATE BLVD E & FLORIDA DR
13F120216 19:46:37 45 NEIGHBORHOOD 1400 TAYLOR ST
13F120205 19:47:39 40P PANIC ALARM 3400 VARSITY LN
13F120215 19:48:52 37 PARKING VIOL 3600 MEDA PASS
13F120206 19:50:15 43 DISTURBANCE 3900 OLD MILL RD
13F120210 19:52:04 911 HANG UP 1900 FOX POINT TRL
13F120209 19:52:27 40A AUDIBLE 4100 COLDWATER RD
13F120214 19:53:01 43 DISTURBANCE 700 FLORENCE AVE
13F120208 19:53:15 27 RECKLESS DRI 30500 I 69 SB
13F120207 19:53:20 51 THEFT 5200 MCCLELLAN ST
13F120211 19:53:51 65A SUICIDE ATT 4900 MADIERA DR
13F120212 19:53:56 48 SUSPICIOUS 3200 ST JOE CENTER RD
13F120213 19:56:09 37 PARKING VIOL 1600 BARTHOLD ST
13F120217 20:00:20 30 TRAFFIC STOP 1400 OXFORD ST & REED ST
13F120218 20:02:48 51 THEFT 200 PETTIT AVE E
13F120219 20:04:03 40 ALARM 6400 CONSTITUTION DR
13F120220 20:06:30 96JO 1000 OAKLAND ST
13F120228 20:09:03 22I JUV INVEST 200 CREIGHTON AVE E & BARR ST S
13F120221 20:09:30 25 PD ACCIDENT 100 TILLMAN RD E & CALHOUN ST S
13F120223 20:12:37 48 SUSPICIOUS 1900 CALHOUN ST S & WILLIAMS ST E
13F120225 20:12:53 48 SUSPICIOUS 800 HUFFMAN ST
13F120222 20:13:31 30 TRAFFIC STOP 10900 US 30 W & FELGER RD
13F120224 20:14:12 40 ALARM 600 BERRY ST E
13F120230 20:19:15 39 STOLEN VEHIC 2800 CLINTON ST S
13F120226 20:20:22 27 RECKLESS DRI 2500 SANDPOINT RD & GENESEE AVE
13F120227 20:22:00 40P PANIC ALARM 5400 COVENTRY LN
13F120229 20:24:38 30 TRAFFIC STOP 4500 WASHINGTON RD N
13F120231 20:27:28 46 DOMESTIC 7600 COLD SPRINGS BLVD
13F120233 20:38:54 EMS 4700 OAK CREEK DR
13F120235 20:42:17 911 HANG UP 4500 SOUTHPARK DR
13F120232 20:42:25 911 HANG UP 10400 HAVERFORD PL
13F120234 20:42:52 30 TRAFFIC STOP 10900 US 30 W & FELGER RD
13F120236 20:53:02 46,96 6300 REED RD
13F120245 20:53:27 51 THEFT 1600 TYLER AVE
13F120239 20:56:11 96JO 900 LAKE AVE
13F120243 20:56:13 34 TRAFF HAZARD 7700 TIPPERARY TRL
13F120242 20:57:06 911 HANG UP 400 MAIN ST W
13F120238 20:57:24 40A AUDIBLE 200 WOODLAND AVE E
13F120237 20:57:49 30 TRAFFIC STOP 1400 COLONY CT & TRAILS NORTH DR
13F120241 20:58:04 25 PD ACCIDENT 500 FAIRFIELD AVE & PEARL ST
13F120240 20:58:43 LP LOST PROPERT BLUFFTON RD
13F120249 21:04:21 67 INDECENT 2800 PARNELL AVE
13F120244 21:04:38 911 HANG UP 700 DEWALD ST W
13F120247 21:11:25 40A AUDIBLE 2500 ST MARYS AVE
13F120246 21:13:12 30 TRAFFIC STOP 200 RUDISILL BLVD E & CLINTON ST S
13F120248 21:13:31 43 DISTURBANCE 3900 CALHOUN ST S
13F120253 21:13:57 102 THREATS 800 HUFFMAN ST
13F120250 21:17:10 30 TRAFFIC STOP 3500 HANNA ST S & HAMILTON AVE
13F120252 21:23:45 15 ASSIST 6900 WIMBERLY XING
13F120251 21:24:38 22I JUV INVEST 300 WILLIAMS ST W
13F120254 21:30:41 30 TRAFFIC STOP 30200 I 69 SB
13F120255 21:30:53 911 HANG UP 800 CREIGHTON AVE E
13F120256 21:33:59 26 PI ACCIDENT 4000 REED RD & SANDRIDGE DR
13F120257 21:36:03 43 DISTURBANCE 200 LEXINGTON AVE
13F120258 21:41:06 48 SUSPICIOUS 4500 JASON DR
13F120282 21:42:15 51 THEFT 600 PROSPECT AVE
13F120259 21:43:24 46 DOMESTIC 1400 BAXTER ST
13F120275 21:44:30 22N CHILD NEGLE 8300 BRIDGEWAY DR
13F120260 21:44:48 40I INTRUSION 1200 BARR ST S
13F120263 21:44:55 43 DISTURBANCE 700 DEWALD ST W
13F120262 21:45:26 46 DOMESTIC 3500 GLENCAIRN DR
13F120261 21:45:42 911 HANG UP 300 PONTIAC ST E
13F120264 21:47:00 96JO 2500 BROADWAY
13F120265 21:47:02 43 DISTURBANCE 200 MASTERSON AVE E
13F120270 21:49:12 113 SHOTS FIRED 2500 MINER ST
13F120272 21:49:13 27 RECKLESS DRI 4700 WAYNE TRACE
13F120267 21:49:19 44LM 6000 LIMA RD
13F120266 21:49:43 33,34 6300 LIMA RD
13F120274 21:51:37 1 MEET 9200 STARLAND CT
13F120268 21:55:01 27 RECKLESS DRI 10100 ILLINOIS RD & SCOTT RD S
13F120269 21:56:29 20 PROBLEM UNK 1600 HOWELL ST & RUMSEY AVE
13F120271 21:58:48 911 HANG UP 800 DEWALD ST W
13F120273 21:59:47 52 SHOPLIFTER 1400 ST JOSEPH BLVD
13F120277 22:03:16 44LM 4500 WARSAW ST
13F120276 22:07:20 48 SUSPICIOUS 400 BASS ST
13F120278 22:09:34 48,36 5300 GOSHEN RD
13F120280 22:11:52 911 HANG UP 1300 REED RD
13F120279 22:13:32 30 TRAFFIC STOP 100 WILDWOOD AVE E
13F120281 22:15:09 43 DISTURBANCE 5500 ST JOE RD
13F120283 22:26:02 66 MENTALLY ILL 5600 KOHART PL
13F120285 22:26:42 25,86 10900 AUBURN RD
13F120284 22:27:52 30 TRAFFIC STOP 1200 MICHIGAN AVE & NELSON ST
13F120286 22:31:17 24 MISSING PERS 3500 PORTAGE BLVD
13F120287 22:31:48 40A AUDIBLE 2200 FOREST PARK BLVD
13F120289 22:35:33 44 NUISANCE 4100 SENICA DR & ROCKBURN DR
13F120288 22:36:05 25 PD ACCIDENT 5800 CLINTON ST N & ST JOE CENTER
13F120291 22:38:44 113 SHOTS FIRED 3600 MCCORMICK AVE
13F120290 22:39:12 99 NARCOTICS 100 DEWALD ST E
13F120296 22:39:30 22RN RUNAWAY 5500 STANDISH DR
13F120292 22:43:23 22I JUV INVEST 2500 LAKE AVE
13F120294 22:47:54 63 CONTACT 4400 TACOMA AVE
13F120295 22:50:28 48 SUSPICIOUS 500 LAWTON PL
13F120293 22:51:01 129 6000 RADCLIFFE DR
13F120297 22:55:41 48,36 4900 CALHOUN ST S
13F120299 22:56:16 911 HANG UP 1600 WALL ST
13F120298 22:58:27 48,35 5000 ILLINOIS RD
13F120300 22:59:54 30 TRAFFIC STOP 500 BEECHWOOD DR
13F120301 23:00:13 43 DISTURBANCE 1700 BEACON ST
13F120305 23:00:23 65T SUICIDE THR 12200 GOLDEN HARVEST DR
13F120302 23:04:25 911 HANG UP 2800 CALHOUN ST S
13F120303 23:06:20 63 CONTACT 31200 I 69 SB
13F120304 23:08:23 30 TRAFFIC STOP 1800 AIRPORT EXPRESSWAY
13F120307 23:09:17 22RC RECOVERY 5300 GOSHEN RD
13F120306 23:10:29 30 TRAFFIC STOP 1700 LAFAYETTE ST S & WALLACE ST E
13F120308 23:13:43 30 TRAFFIC STOP 300 WALLACE ST E & LAFAYETTE ST S
13F120311 23:18:22 911 HANG UP 8100 ROXBORO CT
13F120310 23:20:44 43 DISTURBANCE 3000 HOLTON AVE
13F120313 23:24:25 44LM 1600 FOURTH ST W
13F120312 23:25:08 911 HANG UP 4300 WAYNE TRACE
13F120316 23:26:29 44FW 1900 ST MARYS AVE
13F120315 23:26:33 23JO 100 DEWALD ST W
13F120314 23:27:10 30 TRAFFIC STOP 2100 SANDPOINT RD & BLUFFTON RD
13F120317 23:29:21 65A SUICIDE ATT 1200 VANCE AVE
13F120318 23:30:57 30 TRAFFIC STOP 6000 JEFFERSON BLVD W
13F120319 23:31:24 129 7600 SOUTHTOWN XING
13F120320 23:31:51 129 7700 SOUTHTOWN XING
13F120321 23:33:52 48,35 1500 CASS ST & FIFTH ST
13F120322 23:37:01 48,36 6700 PAWAWNA DR & TONAWANDA DR
13F120324 23:39:08 63 CONTACT 12200 BENDING OAKS CT
13F120323 23:39:46 48,36 3100 BROOKLYN AVE
13F120325 23:42:38 96JO 7900 SERENITY DR
13F120326 23:44:06 44 NUISANCE 4200 CADILLAC DR & ABOITE CENTER R
13F120327 23:51:51 46 DOMESTIC 3000 HOLTON AVE
13F120329 23:56:23 63 CONTACT 1400 WASHINGTON CENTER RD W
13F120328 23:56:24 48 SUSPICIOUS 3000 BROADWAY
13F120330 23:58:52 30 TRAFFIC STOP 4800 ANTHONY BLVD S & PETTIT AVE E
Amber Alert

All-America City